ROMMA est une association bénévole à but non lucratif. Votre soutien est indispensable : ADHERER à ROMMA ou FAIRE un DON

Saint-Léger-les-Mélèzes - (05, Hautes-Alpes)

Champsaur (1245 m)   Longitude: 6° 11' 42" E    Latitude: 44° 38' 38" N Station partenaire n°51
 

Détail journalier du     <<     >>

Température Precipitation Humidité Vent Dir Rafale Dir. rafale Ensol.
Heure (°C) (mm) (%) (km/h) (km/h) (min)
01:00 15.80753S6S0
02:00 15.40751S5S0
03:00 15.00783S6S0
04:00 14.50792S5S0
05:00 13.90811SSO6SSO0
06:00 13.90811SSO5SSO0
07:00 14.30793SO10SSE0
08:00 13.808205SO0
09:00 15.20803S6SE10
10:00 17.806803SSO60
11:00 18.70651N5NNO0
12:00 20.70611NO6NO0
13:00 22.90522ONO11ONO20
14:00 24.70443ONO13O60
15:00 25.40443ONO16O60
16:00 25.90443SSE13SSE60
17:00 25.00443O11O40
18:00 24.60442SSO16O30
19:00 22.90481SO11OSO0
20:00 20.90501O8ONO10
21:00 19.80532SSO10SSO0
22:00 17.806006S0
23:00 17.30621SE11ONO0
minuit 16.70651S8S0

Graphique du 15-09-2019

 

Serveur OMMA